(153298) Paulmyers = 1998 YM33 = 2001 FC122 = 2003 UK104

Discovered at Junk Bond on 2001-03-29 by D. Healy.
(153298) Paulmyers = 2001 FC122

Paul Myers (b. 1957), associate professor of biology at the University of Minnesota, Morris, was among the first to study zebrafish as models for evolution and human development. As author of the blog Pharyngula and through public appearances and debates, he educates the public about evolution and science. [Ref: Minor Planet Circ. 62357]

Orbit

Orbit type: Main Belt

Note: WebGL enabled browser required.

epoch2024-03-31.0
epoch JD2460400.5
perihelion date2019-03-24.52103
perihelion JD2458567.02103
argument of perihelion (°)70.90838
ascending node (°)194.78306
inclination (°)5.13524
eccentricity0.1439305
perihelion distance (AU)2.7238772
Tisserand w.r.t. Jupiter3.2
ΔV w.r.t. Earth (km/sec)10.4
semimajor axis (AU)3.1818410
mean anomaly (°)318.39194
mean daily motion (°/day)0.17365450
aphelion distance (AU)3.640
period (years)5.68
P-vector [x]-0.07609547
P-vector [y]-0.94516984
P-vector [z]-0.31759007
Q-vector [x]0.99683894
Q-vector [y]-0.07940892
Q-vector [z]-0.00251901
absolute magnitude15.25
phase slope0.15
uncertainty0
referenceMPEC 2024-F07
observations used515
oppositions19
arc length (days)9216
first opposition used1998
last opposition used2024
residual rms (arc-secs)0.79
perturbers coarse indicatorM-v
perturbers precise indicator003Ek
first observation date used1998-12-22.0
last observation date used2024-03-16.0
computer nameMPCLINUX
JD of orbit computation2456966.892837
perihelion JD uncertainty (days)1.0434E-04
argument of perihelion uncertainty (°)4.5824E-05
ascending node uncertainty (°)4.1018E-05
inclination uncertainty (°)5.1622E-06
eccentricity uncertainty 3.5492E-08
perihelion distance uncertainty (AU)1.0686E-07
Minimum Orbit Intersection Distances (in AU)
for orbit epoch: 2460400.5, reference: E2024-G95
Mercury2.26437
Venus2.00153
Earth1.71368
Mars1.23701
Jupiter1.45344
Saturn5.41616
Uranus15.1038
Neptune26.281

Observations

525 total observations over interval: 1998 12 22.14218 – 2024 03 16.576455
These data are available for download (format description).

Date (UT) J2000 RA J2000 Dec Magn Location Ref
1998 12 22.14218 03 45 01.10 +14 26 04.3 21.2 V 691 – Steward Observatory, Kitt Peak-Spacewatch MPC 54282
1998 12 22.16402 03 45 00.41 +14 26 02.8 21.2 V 691 – Steward Observatory, Kitt Peak-Spacewatch MPC 54282
1998 12 22.18596 03 44 59.67 +14 26 00.2 20.9 V 691 – Steward Observatory, Kitt Peak-Spacewatch MPC 54282
2001 03 21.40143 12 24 54.46 -04 06 30.3 20.1   608 – Haleakala-AMOS MPS 28488
2001 03 21.41174 12 24 53.99 -04 06 26.7 20.0   608 – Haleakala-AMOS MPS 28488
2001 03 21.42256 12 24 53.54 -04 06 22.8 19.9   608 – Haleakala-AMOS MPS 28488
2001 03 28.31472 12 19 59.70 -03 24 09.8 19.8 V 691 – Steward Observatory, Kitt Peak-Spacewatch MPS 28488
2001 03 28.34181 12 19 58.50 -03 23 59.8 20.2 V 691 – Steward Observatory, Kitt Peak-Spacewatch MPS 28488
2001 03 28.36868 12 19 57.32 -03 23 49.7 20.0 V 691 – Steward Observatory, Kitt Peak-Spacewatch MPS 28488
2001 03 29.18998 12 19 22.28 -03 18 42.1 19.6 R 701 – Junk Bond Observatory, Sierra Vista MPS 28488
2001 03 29.23038 12 19 20.64 -03 18 29.1 19.3 R 701 – Junk Bond Observatory, Sierra Vista MPS 28488
2001 03 29.27078 12 19 18.61 -03 18 10.7 19.3 R 701 – Junk Bond Observatory, Sierra Vista MPS 28488
2001 03 30.24722 12 18 36.93 -03 12 07.2 19.8 R 701 – Junk Bond Observatory, Sierra Vista MPS 28488
2001 03 30.27231 12 18 35.82 -03 11 58.2 19.6 R 701 – Junk Bond Observatory, Sierra Vista MPS 82955
2001 03 30.29067 12 18 34.91 -03 11 56.0 23.0 R 701 – Junk Bond Observatory, Sierra Vista MPS 28488
2001 03 30.31584 12 18 33.86 -03 11 43.1 19.9 R 701 – Junk Bond Observatory, Sierra Vista MPS 82955
2001 03 30.33515 12 18 32.98 -03 11 33.7 20.2 R 701 – Junk Bond Observatory, Sierra Vista MPS 28488
2001 03 30.35962 12 18 32.00 -03 11 26.0 19.7 R 701 – Junk Bond Observatory, Sierra Vista MPS 82955
2001 03 31.20001 12 17 56.31 -03 06 11.2 20.0 R 701 – Junk Bond Observatory, Sierra Vista MPS 28488
2001 03 31.24115 12 17 54.45 -03 05 56.6 20.0 R 701 – Junk Bond Observatory, Sierra Vista MPS 28488
2001 03 31.28199 12 17 52.65 -03 05 50.2 23.5 R 701 – Junk Bond Observatory, Sierra Vista MPS 28488
2002 06 09.38602 19 43 04.84 -13 38 26.6 19.2   704 – Lincoln Laboratory ETS, New Mexico MPS 90434
2002 06 09.39989 19 43 04.52 -13 38 26.3 19.9   704 – Lincoln Laboratory ETS, New Mexico MPS 90434
2002 06 09.41376 19 43 04.19 -13 38 24.8 19.4   704 – Lincoln Laboratory ETS, New Mexico MPS 90434
2002 06 09.42762 19 43 03.84 -13 38 23.7 19.6   704 – Lincoln Laboratory ETS, New Mexico MPS 90434
2002 07 05.31342 19 27 26.47 -13 42 54.3 18.8   704 – Lincoln Laboratory ETS, New Mexico MPS 90434
2002 07 05.32633 19 27 25.92 -13 42 56.3 18.9   704 – Lincoln Laboratory ETS, New Mexico MPS 90434
2002 07 05.35241 19 27 24.58 -13 42 58.8 18.6   704 – Lincoln Laboratory ETS, New Mexico MPS 90434
2002 07 14.23247 19 20 27.00 -13 57 45.4 18.5   704 – Lincoln Laboratory ETS, New Mexico MPS 90434
2002 07 14.24571 19 20 26.30 -13 57 47.5 18.8   704 – Lincoln Laboratory ETS, New Mexico MPS 90434
2002 07 14.27151 19 20 25.04 -13 57 51.1 19.0   704 – Lincoln Laboratory ETS, New Mexico MPS 90434
2002 07 14.28462 19 20 24.45 -13 57 52.4 19.4   704 – Lincoln Laboratory ETS, New Mexico MPS 90434
2003 10 18.19299 01 13 17.73 +06 56 03.5 19.9 V 691 – Steward Observatory, Kitt Peak-Spacewatch MPS 89714
2003 10 18.22091 01 13 16.52 +06 55 54.1 20.4 V 691 – Steward Observatory, Kitt Peak-Spacewatch MPS 89714
2003 10 18.24841 01 13 15.31 +06 55 45.0 19.9 V 691 – Steward Observatory, Kitt Peak-Spacewatch MPS 89714
2003 10 21.27608 01 11 07.51 +06 38 56.8 19.7   644 – Palomar Mountain/NEAT MPS 89714
2003 10 21.29712 01 11 06.60 +06 38 49.8 19.3   644 – Palomar Mountain/NEAT MPS 89714
2003 10 21.32214 01 11 05.52 +06 38 41.5 19.6   644 – Palomar Mountain/NEAT MPS 89714
2003 10 28.20336 01 06 29.82 +06 02 12.4 20.1 C 704 – Lincoln Laboratory ETS, New Mexico MPS 291326
2003 10 28.21617 01 06 29.32 +06 02 09.7 19.2 C 704 – Lincoln Laboratory ETS, New Mexico MPS 291326
2003 10 28.22882 01 06 28.79 +06 02 04.5 19.3 C 704 – Lincoln Laboratory ETS, New Mexico MPS 291326
2003 10 28.24127 01 06 28.25 +06 01 59.3 20.7 C 704 – Lincoln Laboratory ETS, New Mexico MPS 291326
2004 12 09.21112 05 24 14.27 +16 46 28.7 20.5 V 691 – Steward Observatory, Kitt Peak-Spacewatch MPS 121139
2004 12 09.23667 05 24 12.99 +16 46 26.7 20.4 V 691 – Steward Observatory, Kitt Peak-Spacewatch MPS 121139
2004 12 09.26250 05 24 11.69 +16 46 25.0 20.2 V 691 – Steward Observatory, Kitt Peak-Spacewatch MPS 121139
2004 12 14.95553 05 19 31.91 +16 39 43.1 19.7 R 599 – Campo Imperatore-CINEOS MPS 121676
2004 12 14.96546 05 19 31.40 +16 39 42.4 20.2 R 599 – Campo Imperatore-CINEOS MPS 121676
2004 12 14.97539 05 19 30.91 +16 39 41.6 20.2 R 599 – Campo Imperatore-CINEOS MPS 121676
2004 12 14.98536 05 19 30.41 +16 39 40.9 20.3 R 599 – Campo Imperatore-CINEOS MPS 121676
2007 01 27.53153 14 21 09.47 -13 44 52.6 20.9 V 691 – Steward Observatory, Kitt Peak-Spacewatch MPS 197984
2007 01 27.54441 14 21 10.09 -13 44 55.0 21.3 V 691 – Steward Observatory, Kitt Peak-Spacewatch MPS 197984
2007 01 27.55735 14 21 10.73 -13 44 57.4 21.0 V 691 – Steward Observatory, Kitt Peak-Spacewatch MPS 197984
2007 02 25.43481 14 38 51.61 -14 27 14.0 20.0 V G96 – Mt. Lemmon Survey MPS 201426
2007 02 25.44201 14 38 51.75 -14 27 13.6 20.3 V G96 – Mt. Lemmon Survey MPS 201426
2007 02 25.44923 14 38 51.90 -14 27 13.6 20.1 V G96 – Mt. Lemmon Survey MPS 201426
2007 02 25.45652 14 38 52.00 -14 27 13.4 20.3 V G96 – Mt. Lemmon Survey MPS 201426
2007 03 18.44789 14 41 06.77 -13 57 48.1 20.3 V 691 – Steward Observatory, Kitt Peak-Spacewatch MPS 204482
2007 03 18.46555 14 41 06.60 -13 57 45.2 20.0 V 691 – Steward Observatory, Kitt Peak-Spacewatch MPS 204482
2007 03 18.48320 14 41 06.44 -13 57 42.4 20.2 V 691 – Steward Observatory, Kitt Peak-Spacewatch MPS 204482
2007 03 26.46402 14 39 17.78 -13 32 34.3 19.3 V G96 – Mt. Lemmon Survey MPS 205491
2007 03 26.46940 14 39 17.67 -13 32 33.3 19.6 V G96 – Mt. Lemmon Survey MPS 205491
2007 03 26.47485 14 39 17.53 -13 32 31.8 19.2 V G96 – Mt. Lemmon Survey MPS 205491
2007 03 26.48022 14 39 17.46 -13 32 30.7 19.5 V G96 – Mt. Lemmon Survey MPS 205491
2007 04 16.37393 14 28 33.58 -11 56 39.7 19.3   704 – Lincoln Laboratory ETS, New Mexico MPS 207926
2007 04 16.38311 14 28 33.09 -11 56 36.1 19.7   704 – Lincoln Laboratory ETS, New Mexico MPS 207926
2007 04 16.39227 14 28 32.76 -11 56 33.0 19.4   704 – Lincoln Laboratory ETS, New Mexico MPS 207926
2007 04 19.35044 14 26 30.68 -11 40 33.7 19.2 C 704 – Lincoln Laboratory ETS, New Mexico MPS 291326
2007 04 19.35957 14 26 30.25 -11 40 30.4 18.6 C 704 – Lincoln Laboratory ETS, New Mexico MPS 291326
2007 04 19.37785 14 26 29.51 -11 40 23.6 18.9 C 704 – Lincoln Laboratory ETS, New Mexico MPS 291326
2007 04 19.38695 14 26 29.02 -11 40 20.3 18.8 C 704 – Lincoln Laboratory ETS, New Mexico MPS 291326
2007 04 22.33838 14 24 23.00 -11 24 05.4 18.8 V G96 – Mt. Lemmon Survey MPS 208761
2007 04 22.34551 14 24 22.68 -11 24 03.0 18.9 V G96 – Mt. Lemmon Survey MPS 208761
2007 04 22.35265 14 24 22.35 -11 24 00.7 18.9 V G96 – Mt. Lemmon Survey MPS 208761
2007 04 22.35978 14 24 22.06 -11 23 58.3 18.8 V G96 – Mt. Lemmon Survey MPS 208761
2007 04 25.21110 14 22 17.69 -11 08 08.5 19.5 V 691 – Steward Observatory, Kitt Peak-Spacewatch MPS 208761
2007 04 25.22873 14 22 16.90 -11 08 02.8 19.6 V 691 – Steward Observatory, Kitt Peak-Spacewatch MPS 208761
2007 04 25.24636 14 22 16.09 -11 07 56.8 19.3 V 691 – Steward Observatory, Kitt Peak-Spacewatch MPS 208761
2007 04 28.20828 14 20 05.24 -10 51 30.6 19.9 V 691 – Steward Observatory, Kitt Peak-Spacewatch MPS 208761
2007 04 28.22588 14 20 04.45 -10 51 24.6 20.1 V 691 – Steward Observatory, Kitt Peak-Spacewatch MPS 208761
2007 04 28.24102 14 20 03.78 -10 51 19.8 19.7 V 691 – Steward Observatory, Kitt Peak-Spacewatch MPS 208761
